Weather History for Caro, MI

Change the Weather History Date:

Tuesday, September 10, 2013

  Actual Average (KMBS) Record (KMBS)
Temperature  
Mean Temperature 84 °F 64 °F  
Max Temperature 96 °F 74 °F 95 °F (2013)
Min Temperature 72 °F 53 °F 43 °F (1998)
Degree Days  
Heating Degree Days 0    
Month to date heating degree days  
Since 1 July heating degree days  
Cooling Degree Days 19    
Month to date cooling degree days  
Year to date cooling degree days  
Growing Degree Days 34 (Base 50)    
Moisture  
Dew Point 65 °F    
Average Humidity 57    
Maximum Humidity 85    
Minimum Humidity 27    
Precipitation  
Precipitation 0.00 in 0.12 in 0.89 in (2007)
Month to date precipitation 1.25  
Year to date precipitation 21.77  
Snow  
Snow 0.00 in - - ()
Month to date snowfall  
Since 1 July snowfall  
Since 1 September snowfall  
Snow Depth -    
Sea Level Pressure  
Sea Level Pressure 29.91 in    
Wind  
Wind Speed 10 mph (SW)    
Max Wind Speed 22 mph    
Max Gust Speed 29 mph    
Visibility 10 miles    
Events      
T = Trace of Precipitation, MM = Missing Value Source: NWS Daily Summary

Daily Weather History Graph

Daily Weather History Graph

Search for Another Location

Airport:

Trip Planner

Search our weather history database for the weather conditions in past years. The results will help you decide how hot, cold, wet, or windy it might be!

Date:

Astronomy

Sep. 10, 2013 Rise Set
Actual Time 7:07 AM EDT 7:52 PM EDT
Civil Twilight 6:38 AM EDT 8:21 PM EDT
Nautical Twilight 6:04 AM EDT 8:55 PM EDT
Astronomical Twilight 5:28 AM EDT 9:31 PM EDT
Moon 12:43 PM EDT (9/10) 10:44 PM EDT (9/10)
Length of Visible Light 13h 42m
Length of Day
12h 44m
Waxing Crescent, 28% of the Moon is Illuminated
Sep 10
Waxing Crescent
Sep 12
First Quarter
Sep 19
Full
Sep 26
Last Quarter
Oct 4
New

Hourly Weather History & Observations

Time (EDT) Temp. Heat Index Dew Point Humidity Pressure Visibility Wind Dir Wind Speed Gust Speed Precip Events Conditions
12:14 AM 72.5 °F - 67.8 °F 85% 29.85 in 7.0 mi South 6.9 mph - N/A   Clear
12:35 AM 72.9 °F - 68.0 °F 85% 29.85 in 10.0 mi South 6.9 mph - N/A   Clear
12:55 AM 73.4 °F - 68.2 °F 84% 29.84 in 10.0 mi South 9.2 mph - N/A   Clear
1:14 AM 74.7 °F - 68.4 °F 81% 29.84 in 10.0 mi SSW 10.4 mph - N/A   Clear
1:35 AM 74.8 °F - 68.4 °F 80% 29.84 in 10.0 mi SSW 9.2 mph - N/A   Clear
1:55 AM 74.5 °F - 68.7 °F 82% 29.84 in 10.0 mi SSW 9.2 mph - N/A   Clear
2:14 AM 74.5 °F - 68.9 °F 83% 29.84 in 10.0 mi SSW 9.2 mph - N/A   Clear
2:35 AM 73.9 °F - 69.1 °F 85% 29.85 in 10.0 mi SSW 6.9 mph - N/A   Clear
2:55 AM 75.0 °F - 69.8 °F 84% 29.85 in 10.0 mi SSW 8.1 mph - N/A   Clear
3:14 AM 76.5 °F - 70.3 °F 81% 29.85 in 10.0 mi SW 12.7 mph - N/A   Clear
3:35 AM 76.3 °F - 70.2 °F 81% 29.86 in 10.0 mi SSW 8.1 mph - N/A   Clear
3:55 AM 75.7 °F - 70.3 °F 83% 29.86 in 10.0 mi SW 8.1 mph - N/A   Clear
4:14 AM 75.9 °F - 70.7 °F 84% 29.87 in 10.0 mi SW 11.5 mph - N/A   Clear
4:35 AM 77.0 °F - 71.1 °F 82% 29.87 in 10.0 mi SW 10.4 mph 16.1 mph N/A   Clear
4:54 AM 77.5 °F - 71.2 °F 81% 29.87 in 10.0 mi SW 9.2 mph - N/A   Clear
5:15 AM 77.4 °F - 71.2 °F 81% 29.87 in 10.0 mi SW 9.2 mph - N/A   Clear
5:35 AM 77.2 °F - 71.2 °F 82% 29.87 in 10.0 mi SW 10.4 mph 16.1 mph N/A   Clear
5:54 AM 77.0 °F - 71.1 °F 82% 29.87 in 10.0 mi SW 9.2 mph - N/A   Clear
6:15 AM 77.0 °F - 71.1 °F 82% 29.87 in 10.0 mi SW 10.4 mph 16.1 mph N/A   Clear
6:35 AM 77.0 °F - 70.9 °F 81% 29.88 in 10.0 mi SW 10.4 mph - N/A   Clear
6:54 AM 77.4 °F - 70.7 °F 80% 29.89 in 10.0 mi SW 11.5 mph - N/A   Clear
7:15 AM 77.4 °F - 70.7 °F 80% 29.89 in 10.0 mi SW 9.2 mph - N/A   Clear
7:35 AM 77.4 °F - 70.7 °F 80% 29.90 in 10.0 mi SW 8.1 mph - N/A   Clear
7:55 AM 77.9 °F - 70.7 °F 78% 29.90 in 10.0 mi SW 10.4 mph - N/A   Clear
8:15 AM 79.2 °F - 70.7 °F 75% 29.90 in 10.0 mi SW 9.2 mph - N/A   Clear
8:34 AM 78.6 °F - 70.5 °F 76% 29.90 in 10.0 mi SW 8.1 mph 18.4 mph N/A   Clear
8:55 AM 79.3 °F - 70.7 °F 75% 29.91 in 10.0 mi SW 10.4 mph - N/A   Clear
9:15 AM 81.3 °F 85.2 °F 70.5 °F 70% 29.91 in 10.0 mi SW 11.5 mph 16.1 mph N/A   Clear
9:34 AM 82.2 °F 86.2 °F 70.3 °F 67% 29.91 in 10.0 mi SW 12.7 mph 17.3 mph N/A   Clear
9:55 AM 83.3 °F 87.4 °F 69.8 °F 64% 29.92 in 10.0 mi SW 12.7 mph - N/A   Clear
10:14 AM 84.2 °F 87.9 °F 69.1 °F 60% 29.92 in 10.0 mi SW 12.7 mph - N/A   Clear
10:35 AM 85.8 °F 89.4 °F 68.7 °F 56% 29.93 in 10.0 mi WSW 11.5 mph 16.1 mph N/A   Clear
10:55 AM 87.1 °F 90.2 °F 67.5 °F 52% 29.93 in 10.0 mi SW 15.0 mph - N/A   Clear
11:14 AM 87.8 °F 90.4 °F 66.7 °F 49% 29.93 in 10.0 mi SW 12.7 mph 17.3 mph N/A   Clear
11:35 AM 89.2 °F 92.0 °F 66.6 °F 47% 29.93 in 10.0 mi SW 13.8 mph 18.4 mph N/A   Clear
11:55 AM 89.8 °F 92.5 °F 66.2 °F 46% 29.93 in 10.0 mi SW 15.0 mph 18.4 mph N/A   Clear
12:14 PM 89.8 °F 91.8 °F 65.5 °F 44% 29.93 in 10.0 mi WSW 16.1 mph - N/A   Clear
12:35 PM 91.2 °F 93.7 °F 65.8 °F 43% 29.93 in 10.0 mi WSW 10.4 mph 19.6 mph N/A   Clear
12:55 PM 91.8 °F 93.8 °F 64.8 °F 41% 29.93 in 10.0 mi SW 15.0 mph - N/A   Clear
1:14 PM 92.5 °F 94.1 °F 64.2 °F 39% 29.93 in 10.0 mi SW 16.1 mph 20.7 mph N/A   Clear
1:35 PM 93.7 °F 95.8 °F 64.4 °F 38% 29.93 in 10.0 mi SW 18.4 mph 23.0 mph N/A   Clear
1:54 PM 93.9 °F 95.2 °F 63.1 °F 36% 29.93 in 10.0 mi SW 13.8 mph - N/A   Clear
2:15 PM 95.2 °F 95.5 °F 61.3 °F 32% 29.93 in 10.0 mi SW 19.6 mph 27.6 mph N/A   Clear
2:35 PM 94.8 °F 95.3 °F 61.2 °F 33% 29.92 in 10.0 mi WSW 17.3 mph 23.0 mph N/A   Clear
2:54 PM 95.5 °F 95.6 °F 60.4 °F 31% 29.92 in 10.0 mi SW 13.8 mph 20.7 mph N/A   Clear
3:15 PM 95.7 °F 95.5 °F 60.1 °F 30% 29.92 in 10.0 mi SW 18.4 mph 25.3 mph N/A   Clear
3:35 PM 95.5 °F 95.2 °F 59.2 °F 30% 29.92 in 10.0 mi SW 21.9 mph 26.5 mph N/A   Clear
3:54 PM 96.1 °F 95.6 °F 58.8 °F 29% 29.92 in 10.0 mi WSW 13.8 mph 18.4 mph N/A   Clear
4:15 PM 95.5 °F 94.1 °F 56.8 °F 27% 29.92 in 10.0 mi WSW 16.1 mph 26.5 mph N/A   Clear
4:34 PM 95.2 °F 93.9 °F 57.4 °F 28% 29.92 in 10.0 mi SW 15.0 mph 26.5 mph N/A   Clear
4:55 PM 94.8 °F 93.4 °F 57.0 °F 28% 29.92 in 10.0 mi WSW 19.6 mph 28.8 mph N/A   Clear
5:15 PM 94.5 °F 93.3 °F 57.2 °F 29% 29.92 in 10.0 mi SW 18.4 mph 26.5 mph N/A   Clear
5:34 PM 94.1 °F 92.5 °F 56.7 °F 28% 29.92 in 10.0 mi WSW 11.5 mph 27.6 mph N/A   Clear
5:55 PM 93.2 °F 91.6 °F 56.3 °F 29% 29.92 in 10.0 mi SW 16.1 mph 21.9 mph N/A   Clear
6:14 PM 92.5 °F 90.7 °F 56.1 °F 29% 29.93 in 10.0 mi SW 13.8 mph 23.0 mph N/A   Clear
6:35 PM 91.4 °F 89.9 °F 56.7 °F 31% 29.93 in 10.0 mi SW 13.8 mph - N/A   Clear
6:55 PM 89.8 °F 88.6 °F 57.7 °F 34% 29.93 in 10.0 mi SW 9.2 mph - N/A   Clear
7:14 PM 88.3 °F 87.3 °F 58.3 °F 36% 29.93 in 10.0 mi SW 8.1 mph - N/A   Clear
7:35 PM 86.0 °F 85.9 °F 60.3 °F 42% 29.93 in 10.0 mi SSW 10.4 mph - N/A   Clear
7:55 PM 84.9 °F 85.0 °F 60.4 °F 44% 29.94 in 10.0 mi SSW 10.4 mph - N/A   Clear
8:14 PM 83.5 °F 83.7 °F 60.4 °F 46% 29.95 in 10.0 mi SW 6.9 mph - N/A   Clear
8:35 PM 82.4 °F 82.7 °F 60.3 °F 47% 29.96 in 10.0 mi SW 9.2 mph - N/A   Clear
8:55 PM 80.6 °F 81.5 °F 60.8 °F 51% 29.97 in 10.0 mi SW 6.9 mph - N/A   Clear
9:14 PM 80.6 °F 81.5 °F 61.0 °F 51% 29.97 in 10.0 mi SW 8.1 mph - N/A   Clear
9:35 PM 80.6 °F 81.5 °F 61.0 °F 51% 29.98 in 10.0 mi SW 6.9 mph - N/A   Clear
9:54 PM 79.9 °F - 61.2 °F 53% 29.98 in 10.0 mi SW 6.9 mph - N/A   Clear
10:15 PM 78.8 °F - 61.3 °F 55% 29.98 in 10.0 mi SW 6.9 mph - N/A   Clear
10:35 PM 79.7 °F - 61.0 °F 53% 29.97 in 10.0 mi SW 8.1 mph - N/A   Clear
10:54 PM 80.4 °F 81.2 °F 60.3 °F 50% 29.97 in 10.0 mi SW 6.9 mph - N/A   Clear
11:15 PM 79.7 °F - 60.3 °F 51% 29.97 in 10.0 mi SW 6.9 mph - N/A   Clear
11:34 PM 79.3 °F - 60.1 °F 52% 29.97 in 10.0 mi SSW 6.9 mph - N/A   Clear
11:55 PM 78.8 °F - 60.3 °F 53% 29.97 in 10.0 mi SW 6.9 mph - N/A   Clear